This is the latest recevied weather packets stored in our database for station/object EA1PVC-10. If no packets are shown the sender has not sent any weather packets the latest 10 day(s).
| Time | Temp. | Humidity | Pressure | Rain* | Wind** | Luminosity | Snow |
|---|---|---|---|---|---|---|---|
| 1777701428 | 14.44° C | 67% | 923 hPa | - | - | - | - |
| 1777700528 | 14.44° C | 67% | 922.8 hPa | - | - | - | - |
| 1777699628 | 9.44° C | 70% | 916.4 hPa | - | - | - | - |
| 1777698717 | 14.44° C | 73% | 923 hPa | - | - | - | - |
| 1777697817 | 14.44° C | 73% | 923 hPa | - | - | - | - |
| 1777696916 | 14.44° C | 73% | 923.1 hPa | - | - | - | - |
| 1777696017 | 14.44° C | 74% | 923 hPa | - | - | - | - |
| 1777695118 | 12.78° C | 74% | 922.2 hPa | - | - | - | - |
| 1777694216 | 13.89° C | 75% | 923.2 hPa | - | - | - | - |
| 1777693316 | 13.89° C | 74% | 923.4 hPa | - | - | - | - |
| 1777692416 | 14.44° C | 68% | 923.4 hPa | - | - | - | - |
| 1777691516 | 15° C | 68% | 923.3 hPa | - | - | - | - |
| 1777690630 | 15° C | 68% | 923.2 hPa | - | - | - | - |
| 1777689716 | 15° C | 68% | 923.4 hPa | - | - | - | - |
| 1777688816 | 9.44° C | 67% | 916.2 hPa | - | - | - | - |
| 1777687905 | 14.44° C | 69% | 923.6 hPa | - | - | - | - |
| 1777687004 | 14.44° C | 70% | 923.7 hPa | - | - | - | - |
| 1777686104 | 15° C | 68% | 923.7 hPa | - | - | - | - |
| 1777685204 | 14.44° C | 70% | 923.9 hPa | - | - | - | - |
| 1777684304 | 14.44° C | 72% | 923.9 hPa | - | - | - | - |
| 1777682504 | 12.78° C | 68% | 921.3 hPa | - | - | - | - |
| 1777681604 | 15.56° C | 67% | 924.2 hPa | - | - | - | - |
| 1777680704 | 15.56° C | 65% | 924.3 hPa | - | - | - | - |
| 1777679804 | 15.56° C | 65% | 924.3 hPa | - | - | - | - |
| 1777678904 | 15.56° C | 65% | 924.4 hPa | - | - | - | - |
* Rain since midnight (hover to see other rain measurements)
** Current wind speed in m/s (hover to see current wind gust speed)